ARIANE 44P R/B

Satellite information

Favourite Embed

Satellite Type and Status

ROCKET BODYIN ORBIT

Key statistics

Satellite ARIANE 44P R/B at a glance.

Uptime

10355

Days in orbit

Revolutions

≈ 3.7

Per day

Orbit

MEO

Medium Earth Orbit

Inclination

7.5

Latest

Satellite identification and parameters

Extended collection of information and parameters for ARIANE 44P R/B.

Object identification

Identified? True

Debris? False

Object name: ARIANE 44P R/B

International designator: 1997-040B

Object number (NORAD): 24892

Object ID (CCSDS): 24892

Country: FRANCE (FR)

Current information (Y/N): Y

RCS size: LARGE

Orbital parameters

Period: 384.459 minutes

Inclination: 7.511 deg

SMA: 17514.324 km

Apoapsis: 21967.837 km

Periapsis: 304.541 km

RAAN: 154.203 deg

Eccentricy: 0.6184451

Argument of periapsis: 160.2039 deg

Mean anomaly: 242.2037 deg

Mean motion: 3.74552495 rev/day

Mean motion (dot): 0.00006968 rev/day2

B* drag term: 0.0022481258 1/REarth

Two-line elements (TLE)

Creation date: Dec. 14, 2025, 3:07 a.m.

Reference frame: TEME

Reference center: EARTH

Epoch: Dec. 13, 2025, 9:50 a.m. UTC

TLE line 0: 0 ARIANE 44P R/B

TLE line 1: 1 24892U 97040B 25347.41029714 .00006968 00000-0 22481-2 0 9992

TLE line 2: 2 24892 7.5110 154.2030 6184451 160.2039 242.2037 3.74552495319126

Live tracking on map

Real-time ground track for satellite ARIANE 44P R/B.

In-orbit conjunctions

There are no conjunctions computed for ARIANE 44P R/B, at the moment. Check back to stay up to date, as we update our databases every day.

Go to all conjunctions

Associated space launch

Three of the most powerful broadcast satellites ever launched that are capable of direct-to-home (DTH) service are providing DTH programming to millions of consumers of PanAmSat. They were designed and built by Space Systems/Loral (SS/L). PanAmSat-6 (PAS-6) provides quality digital television to customers in South America.

ARIANE 44P R/B was lifted into orbit during the mission ‘Ariane 44P | PAS 6’, on board a Ariane 44P space rocket.

The launch took place on Aug. 8, 1997, 6:46 a.m. from Ariane Launch Area 2.

For more information about the launch, click the button.

Launch to space Ariane 44P | PAS 6
Ariane 44P | PAS 6

Agency: N/A

Status: Launch Successful

Launch date: Aug. 8, 1997, 6:46 a.m. UTC

Rocket: Ariane 44P

Launch pad: Ariane Launch Area 2

Location: Guiana Space Centre, French Guiana

...

Latest news about this satellite

There are no fresh news available about this satellite. Check back as we update our databases every day.


Newsletter sign-up

Weekly statistics, charts and insights to help you stay on top of the space industry.